Refine Search
Year Filed

2014 ×

Court

Tennessee Middle ×

Click on desired case number or refine your search to continue

Case TitleCourtCase NoChpDate FiledClosedDisposition
Vista-Pro Automotive, LLCTennessee Middle3:14-bk-09118711/17/2014
A Better House, Inc.Tennessee Middle3:14-bk-03259704/23/2014
Cerqa, LLCTennessee Middle3:14-bk-09781712/15/2014
CALX Resources, LLCTennessee Middle3:14-bk-092291111/20/2014
NOVOTNY CUSTOM HOMES, INCTennessee Middle3:14-bk-08632710/30/2014
Auto Ranch, LLCTennessee Middle3:14-bk-08762711/03/201409/01/2016Discharge Not Applicable
Key Rehabilitation, Inc.Tennessee Middle3:14-bk-082061110/14/2014
Nowling Holdings, LLCTennessee Middle3:14-bk-087641111/03/201406/22/2015Dismissed for Abuse 06/03/2015
TIM JONES-PORTRAITURE, LLCTennessee Middle3:14-bk-07836709/30/2014
Sustainable Buildings, LLCTennessee Middle3:14-bk-077821109/30/201412/09/2014
WALK-IN DENTAL CLINICS, INC.Tennessee Middle3:14-bk-076081109/24/2014
The Frager Law Firm, PCTennessee Middle3:14-bk-078881110/02/2014
A & J Towing and Recovery, Inc.Tennessee Middle3:14-bk-068381108/26/2014
Theraco, Inc.Tennessee Middle3:14-bk-07074709/03/2014
Aravind Mallipudi IncTennessee Middle2:14-bk-073831109/15/201410/15/2014Dismissed for Abuse 09/25/2014
Tennessee Logistics, LLCTennessee Middle3:14-bk-06636708/20/2014
A+ Automotive Repair, Inc.Tennessee Middle3:14-bk-063411108/08/2014
View Point Farm, LLCTennessee Middle2:14-bk-066931108/21/2014
ABECO Die Casting Co., Inc.Tennessee Middle1:14-bk-06665708/20/2014
CORNERSTONE DESIGN, LLCTennessee Middle3:14-bk-06334708/08/2014
DRYWALL SYSTEMS CORPORATIONTennessee Middle3:14-bk-06213708/04/2014
Inside-Out Home Furnishings, Inc.Tennessee Middle3:14-bk-05771707/21/2014
RKB GROUP, LLCTennessee Middle2:14-bk-041101105/21/2014
A-Z DIABETES CARE CLUB, LLCTennessee Middle3:14-bk-039231105/15/2014
SIMPLEX HEALTHCARE, INC.Tennessee Middle3:14-bk-039201105/15/2014
S&S Precision Gage LLCTennessee Middle3:14-bk-02387703/21/2014
Tennessee Metal Works, Inc.Tennessee Middle3:14-bk-01785703/05/2014
Bobby Ray's Collision Center, Inc.Tennessee Middle3:14-bk-01940703/10/2014
Kirk LeipzigTennessee Middle3:14-bk-019641103/11/2014
Legend's Carwash at Providence, Inc.Tennessee Middle3:14-bk-020161103/12/201407/30/2014Dismissed for Other Reason 07/11/2014
Leipzig Living TrustTennessee Middle3:14-bk-009531102/10/2014
C & S Electric IncTennessee Middle1:14-bk-01358702/21/2014
W Enterprises, LLCTennessee Middle3:14-bk-01605702/27/2014
Aravind Mallipudi IncTennessee Middle2:14-bk-012011102/18/2014
JSM Properties LLC and LEGEND'S CARWASH INCTennessee Middle3:14-bk-01485702/25/2014
Restaurant Aura, Inc.Tennessee Middle3:14-bk-01188702/17/2014
LEGEND'S CARWASH INCTennessee Middle3:14-bk-01486702/25/201402/10/2015Discharge Not Applicable
Providence Properties, LLCTennessee Middle1:14-bk-006871101/30/201402/13/2020Dismissed for Other Reason 05/21/2014
Braxton Construction, Inc.Tennessee Middle3:14-bk-00841702/05/2014